Horseshoe Bay, TX

1:39 PM MDT on August 18, 2017 (GMT -0600)
Horseshoe Bay

Weather History for KDZB - January, 2014

Change the Weather History Date:

Sunday, January 5, 2014

  Actual Average (KBMQ) Record (KBMQ)
Temperature  
Mean Temperature 46 °F -  
Max Temperature 59 °F 57 °F 79 °F (2007)
Min Temperature 32 °F 37 °F 25 °F (1999)
Degree Days  
Heating Degree Days 19    
Moisture  
Dew Point 25 °F    
Average Humidity 52    
Maximum Humidity 68    
Minimum Humidity 36    
Precipitation  
Precipitation 0.00 in - - ()
Sea Level Pressure  
Sea Level Pressure 30.13 in    
Wind  
Wind Speed 11 mph (NNW)    
Max Wind Speed 21 mph    
Max Gust Speed 31 mph    
Visibility 10 miles    
Events      
Averages and records for this station are not official NWS values.
T = Trace of Precipitation, MM = Missing Value Source: NWS Daily Summary

Daily Weather History Graph

Daily Weather History Graph

Search for Another Location

Airport or City:

Trip Planner

Search our weather history database for the weather conditions in past years. The results will help you decide how hot, cold, wet, or windy it might be!

Date:

Astronomy

Jan. 05, 2014 Rise Set
Actual Time 6:31 AM MST 4:46 PM MST
Civil Twilight 6:04 AM MST 5:13 PM MST
Nautical Twilight 5:35 AM MST 5:42 PM MST
Astronomical Twilight 5:05 AM MST 6:12 PM MST
Moon 9:35 AM MST (1/5) 9:52 PM MST (1/5)
Length of Visible Light 11h 08m
Length of Day
10h 15m
Waxing Crescent, 25% of the Moon is Illuminated
Jan 5
Waxing Crescent
Jan 7
First Quarter
Jan 15
Full
Jan 23
Last Quarter
Jan 30
New

Hourly Weather History & Observations

Time (MST) Temp. Windchill Dew Point Humidity Pressure Visibility Wind Dir Wind Speed Gust Speed Precip Events Conditions
12:15 AM 59.9 °F - 46.9 °F 62% 29.75 in 10.0 mi South 9.2 mph 23.0 mph N/A   Clear
12:35 AM 59.4 °F - 46.8 °F 63% 29.75 in 10.0 mi SSW 8.1 mph 21.9 mph N/A   Clear
12:55 AM 58.5 °F - 46.6 °F 65% 29.77 in 10.0 mi Calm Calm - N/A   Clear
1:15 AM 59.2 °F - 46.4 °F 63% 29.77 in 10.0 mi South 5.8 mph - N/A   Clear
1:35 AM 59.2 °F - 46.0 °F 62% 29.76 in 10.0 mi South 5.8 mph - N/A   Clear
1:55 AM 59.5 °F - 46.0 °F 61% 29.76 in 10.0 mi SW 5.8 mph - N/A   Clear
2:15 AM 59.0 °F - 45.7 °F 61% 29.80 in 10.0 mi North 11.5 mph 21.9 mph N/A   Clear
2:35 AM 59.5 °F - 45.1 °F 59% 29.83 in 10.0 mi WNW 5.8 mph - N/A   Clear
2:55 AM 57.2 °F - 44.6 °F 63% 29.84 in 10.0 mi NNW 6.9 mph - N/A   Clear
3:15 AM 54.5 °F - 42.4 °F 64% 29.87 in 10.0 mi North 12.7 mph 23.0 mph N/A   Scattered Clouds
3:35 AM 47.5 °F - 34.9 °F 62% 29.90 in 10.0 mi NNW 13.8 mph 19.6 mph N/A   Scattered Clouds
3:55 AM 43.9 °F 37.9 °F 31.3 °F 61% 29.93 in 10.0 mi NNW 11.5 mph 21.9 mph N/A   Clear
4:15 AM 41.4 °F 33.0 °F 30.2 °F 65% 29.96 in 10.0 mi NNW 17.3 mph 25.3 mph N/A   Clear
4:35 AM 39.2 °F 31.2 °F 28.4 °F 65% 29.98 in 10.0 mi NNW 13.8 mph 25.3 mph N/A   Clear
4:55 AM 38.3 °F 29.3 °F 28.2 °F 67% 30.00 in 10.0 mi NNW 16.1 mph 23.0 mph N/A   Clear
5:15 AM 37.4 °F 28.5 °F 27.5 °F 67% 30.01 in 10.0 mi NNW 15.0 mph 24.2 mph N/A   Scattered Clouds
5:35 AM 36.5 °F 27.8 °F 26.6 °F 67% 30.03 in 10.0 mi NNW 13.8 mph 18.4 mph N/A   Scattered Clouds
5:55 AM 35.4 °F 26.8 °F 25.7 °F 68% 30.05 in 10.0 mi NW 12.7 mph 23.0 mph N/A   Clear
6:15 AM 34.7 °F 26.4 °F 25.0 °F 68% 30.06 in 10.0 mi NW 11.5 mph 20.7 mph N/A   Clear
6:35 AM 34.3 °F 25.5 °F 23.9 °F 66% 30.08 in 10.0 mi NNW 12.7 mph 17.3 mph N/A   Clear
6:55 AM 34.5 °F 24.8 °F 23.9 °F 65% 30.09 in 10.0 mi NW 15.0 mph 20.7 mph N/A   Clear
7:15 AM 34.7 °F 25.1 °F 23.9 °F 65% 30.11 in 10.0 mi NNW 15.0 mph 18.4 mph N/A   Clear
7:35 AM 35.1 °F 26.9 °F 24.3 °F 65% 30.12 in 10.0 mi NW 11.5 mph 23.0 mph N/A   Clear
7:55 AM 36.0 °F 26.3 °F 24.4 °F 63% 30.13 in 10.0 mi NNW 16.1 mph 21.9 mph N/A   Clear
8:15 AM 36.5 °F 27.4 °F 24.3 °F 61% 30.14 in 10.0 mi NW 15.0 mph 23.0 mph N/A   Clear
8:35 AM 38.1 °F 28.4 °F 24.3 °F 57% 30.16 in 10.0 mi NW 18.4 mph 26.5 mph N/A   Clear
8:55 AM 38.3 °F 28.4 °F 23.0 °F 54% 30.17 in 10.0 mi NNW 19.6 mph 27.6 mph N/A   Clear
9:15 AM 39.0 °F 29.9 °F 23.0 °F 53% 30.18 in 10.0 mi NNW 17.3 mph 28.8 mph N/A   Clear
9:35 AM 39.4 °F 29.5 °F 22.1 °F 50% 30.18 in 10.0 mi NNW 20.7 mph 28.8 mph N/A   Clear
9:55 AM 39.2 °F 29.6 °F 22.3 °F 51% 30.17 in 10.0 mi NNW 19.6 mph 29.9 mph N/A   Clear
10:15 AM 40.1 °F 30.7 °F 22.5 °F 49% 30.18 in 10.0 mi NNW 19.6 mph 31.1 mph N/A   Clear
10:35 AM 40.6 °F 31.7 °F 22.5 °F 48% 30.17 in 10.0 mi NNW 18.4 mph 27.6 mph N/A   Clear
10:55 AM 40.6 °F 32.0 °F 22.3 °F 48% 30.18 in 10.0 mi NNW 17.3 mph 24.2 mph N/A   Clear
11:15 AM 41.4 °F 33.6 °F 22.5 °F 47% 30.19 in 10.0 mi NW 15.0 mph 24.2 mph N/A   Clear
11:35 AM 41.5 °F 33.8 °F 21.0 °F 44% 30.18 in 10.0 mi NNW 15.0 mph 28.8 mph N/A   Clear
11:55 AM 42.6 °F 34.9 °F 21.2 °F 43% 30.18 in 10.0 mi NNW 16.1 mph 24.2 mph N/A   Clear
12:15 PM 43.9 °F 35.7 °F 21.7 °F 41% 30.16 in 10.0 mi NNW 19.6 mph 24.2 mph N/A   Clear
12:35 PM 44.4 °F 37.5 °F 21.7 °F 41% 30.16 in 10.0 mi NNW 15.0 mph 28.8 mph N/A   Clear
12:55 PM 45.0 °F 38.2 °F 21.2 °F 39% 30.17 in 10.0 mi North 15.0 mph 24.2 mph N/A   Clear
1:15 PM 46.0 °F 39.0 °F 21.0 °F 37% 30.17 in 10.0 mi North 17.3 mph 24.2 mph N/A   Clear
1:35 PM 45.9 °F 40.0 °F 19.9 °F 36% 30.17 in 10.0 mi NNW 12.7 mph 23.0 mph N/A   Clear
1:55 PM 45.7 °F 38.8 °F 20.1 °F 36% 30.18 in 10.0 mi NNW 16.1 mph 24.2 mph N/A   Clear
2:15 PM 45.7 °F 39.1 °F 20.3 °F 37% 30.18 in 10.0 mi NNW 15.0 mph 21.9 mph N/A   Clear
2:35 PM 45.9 °F 38.5 °F 20.1 °F 36% 30.20 in 10.0 mi NNW 18.4 mph 21.9 mph N/A   Clear
2:55 PM 44.8 °F 39.0 °F 19.6 °F 37% 30.20 in 10.0 mi NNW 11.5 mph 20.7 mph N/A   Clear
3:15 PM 44.2 °F 37.0 °F 19.9 °F 38% 30.21 in 10.0 mi NNW 16.1 mph 20.7 mph N/A   Clear
3:35 PM 44.2 °F 38.8 °F 19.6 °F 37% 30.22 in 10.0 mi North 10.4 mph 20.7 mph N/A   Clear
3:55 PM 42.3 °F 35.9 °F 19.2 °F 40% 30.24 in 10.0 mi North 11.5 mph 21.9 mph N/A   Clear
4:15 PM 41.0 °F 33.5 °F 18.5 °F 40% 30.26 in 10.0 mi North 13.8 mph 21.9 mph N/A   Clear
4:35 PM 40.1 °F 33.6 °F 19.2 °F 43% 30.26 in 10.0 mi NNW 10.4 mph - N/A   Clear
4:55 PM 39.4 °F 33.2 °F 18.5 °F 43% 30.27 in 10.0 mi NNW 9.2 mph - N/A   Clear
5:15 PM 39.2 °F 32.5 °F 18.3 °F 43% 30.28 in 10.0 mi NNW 10.4 mph 17.3 mph N/A   Clear
5:35 PM 38.8 °F 31.2 °F 18.0 °F 43% 30.29 in 10.0 mi NNW 12.7 mph 19.6 mph N/A   Clear
5:55 PM 38.3 °F 32.5 °F 18.3 °F 45% 30.30 in 10.0 mi North 8.1 mph - N/A   Clear
6:15 PM 38.1 °F 32.3 °F 18.5 °F 45% 30.32 in 10.0 mi NNW 8.1 mph - N/A   Clear
6:35 PM 37.8 °F 32.5 °F 18.9 °F 47% 30.33 in 10.0 mi NNW 6.9 mph - N/A   Clear
6:55 PM 37.0 °F 31.0 °F 19.2 °F 49% 30.34 in 10.0 mi North 8.1 mph - N/A   Clear
7:15 PM 36.7 °F 32.0 °F 18.9 °F 49% 30.35 in 10.0 mi NNW 5.8 mph - N/A   Clear
7:35 PM 36.5 °F 30.3 °F 18.3 °F 48% 30.36 in 10.0 mi NNW 8.1 mph 16.1 mph N/A   Clear
7:55 PM 36.0 °F 28.0 °F 18.0 °F 48% 30.37 in 10.0 mi North 11.5 mph 16.1 mph N/A   Clear
8:15 PM 36.0 °F 29.0 °F 16.0 °F 44% 30.38 in 10.0 mi North 9.2 mph 17.3 mph N/A   Clear
8:35 PM 35.2 °F 27.6 °F 16.0 °F 45% 30.39 in 10.0 mi North 10.4 mph 18.4 mph N/A   Clear
8:55 PM 34.3 °F 27.7 °F 15.8 °F 47% 30.40 in 10.0 mi North 8.1 mph 18.4 mph N/A   Clear
9:15 PM 33.8 °F 26.4 °F 14.9 °F 46% 30.41 in 10.0 mi North 9.2 mph - N/A   Clear
9:35 PM 32.9 °F 25.9 °F 14.7 °F 47% 30.42 in 10.0 mi NNE 8.1 mph - N/A   Clear